Location: Consuma
(43.7833°N, 11.5833°E)
Time: 16:21:59
(UTC+00:00)

Cosmos 2369 Rocket - Pass Details

Date: 17 February 2020
Orbit: 827 x 854 km, 71.0° (Epoch: 06 April)

Event Time Altitude Azimuth Distance (km) Brightness Sun altitude
Exits shadow 03:07:57 - 349° (N) 2,954 5.1 -33.4°
Reaches altitude 10° 03:09:32 10° 359° (N) 2,492 4.8 -33.1°
Maximum altitude 03:13:54 22° 49° (NE) 1,786 4.4 -32.4°
Drops below altitude 10° 03:18:16 10° 99° (E) 2,484 5.4 -31.6°
Sets 03:21:17 0° 114° (ESE) 3,415 6.1 -31.1°
